| Back to River Map | <<< Previous Forecast Point | | | Next Forecast Point >>> | Printer Version | Graph Version |  |
|
PIT RIVER - CANBY (CNBC1)
| Latitude: 41.41º N | Longitude: 120.93º W | Elevation: 4266 Feet | | Forecast Type: Official Location |
| Location: Modoc County in California | Bulletin Group: Upper Sacramento | River Group: Upper Sacramento |
| Issuance Time: | May 06 2026 at 7:46 AM PDT | Next Issuance: | May 07 2026 at 9:00 AM PDT
| |
| Action/Monitor: 7.5 Feet | Minor Flood: 8.5 Feet | Moderate Flood: 9.0 Feet | Major Flood: 10.0 Feet |
# Tabular Observed and Forecast Hydrograph Information
#
# Location: Pit River - Canby (CNBC1)
#
# File Generation Time: 05/06/2026 at 07:47 AM PDT
# Data Interval: 1 Hour
#
# Most Recent Date & Time of Maximum Observed: 05/02/2026 at 08:00 AM PDT
# Maximum Observed Stage: 2.28 Feet
# Maximum Observed Flow: 8 cfs
#
# Earliest Date & Time of Maximum Forecast: 05/10/2026 at 12:00 PM PDT
# Maximum Forecast Stage: 2.50 Feet
# Maximum Forecast Flow: 21 cfs
#
# OBSERVED
#
# Date & Time (Local) Stage (Feet) Flow (cfs) Trend Observed Status
# ---------------------------------------------------------------------------------
05/01/2026 07 AM PDT 2.25 7 Normal
05/01/2026 08 AM PDT 2.26 7 + Normal
05/01/2026 09 AM PDT 2.25 7 - Normal
05/01/2026 10 AM PDT 2.25 7 0 Normal
05/01/2026 11 AM PDT 2.25 7 0 Normal
05/01/2026 12 PM PDT 2.26 7 + Normal
05/01/2026 01 PM PDT 2.27 8 + Normal
05/01/2026 02 PM PDT 2.27 8 0 Normal
05/01/2026 03 PM PDT 2.28 8 + Normal
05/01/2026 04 PM PDT 2.28 8 0 Normal
05/01/2026 05 PM PDT 2.28 8 0 Normal
05/01/2026 06 PM PDT 2.28 8 0 Normal
05/01/2026 07 PM PDT 2.27 8 - Normal
05/01/2026 08 PM PDT 2.26 7 - Normal
05/01/2026 09 PM PDT 2.26 7 0 Normal
05/01/2026 10 PM PDT 2.26 7 0 Normal
05/01/2026 11 PM PDT 2.27 8 + Normal
05/02/2026 12 AM PDT 2.27 8 0 Normal
05/02/2026 01 AM PDT 2.27 8 0 Normal
05/02/2026 02 AM PDT 2.27 8 0 Normal
05/02/2026 03 AM PDT 2.28 8 + Normal
05/02/2026 04 AM PDT 2.28 8 0 Normal
05/02/2026 05 AM PDT 2.28 8 0 Normal
05/02/2026 06 AM PDT 2.28 8 0 Normal
05/02/2026 07 AM PDT 2.28 8 0 Normal
05/02/2026 08 AM PDT 2.28 8 0 Normal
05/02/2026 09 AM PDT 2.27 8 - Normal
05/02/2026 10 AM PDT 2.26 7 - Normal
05/02/2026 11 AM PDT 2.25 7 - Normal
05/02/2026 12 PM PDT 2.25 7 0 Normal
05/02/2026 01 PM PDT 2.24 6 - Normal
05/02/2026 02 PM PDT 2.24 6 0 Normal
05/02/2026 03 PM PDT 2.23 6 - Normal
05/02/2026 04 PM PDT 2.22 6 - Normal
05/02/2026 05 PM PDT 2.22 6 0 Normal
05/02/2026 06 PM PDT 2.21 5 - Normal
05/02/2026 07 PM PDT 2.20 5 - Normal
05/02/2026 08 PM PDT 2.19 5 - Normal
05/02/2026 09 PM PDT 2.19 5 0 Normal
05/02/2026 10 PM PDT 2.19 5 0 Normal
05/02/2026 11 PM PDT 2.19 5 0 Normal
05/03/2026 12 AM PDT 2.20 5 + Normal
05/03/2026 01 AM PDT 2.20 5 0 Normal
05/03/2026 02 AM PDT 2.20 5 0 Normal
05/03/2026 03 AM PDT 2.21 5 + Normal
05/03/2026 04 AM PDT 2.21 5 0 Normal
05/03/2026 05 AM PDT 2.21 5 0 Normal
05/03/2026 06 AM PDT 2.21 5 0 Normal
05/03/2026 07 AM PDT 2.21 5 0 Normal
05/03/2026 08 AM PDT 2.23 6 + Normal
05/03/2026 09 AM PDT 2.25 7 + Normal
05/03/2026 10 AM PDT 2.25 7 0 Normal
05/03/2026 11 AM PDT 2.24 6 - Normal
05/03/2026 12 PM PDT 2.23 6 - Normal
05/03/2026 01 PM PDT 2.23 6 0 Normal
05/03/2026 02 PM PDT 2.22 6 - Normal
05/03/2026 03 PM PDT 2.21 5 - Normal
05/03/2026 04 PM PDT 2.21 5 0 Normal
05/03/2026 05 PM PDT 2.21 5 0 Normal
05/03/2026 06 PM PDT 2.21 5 0 Normal
05/03/2026 07 PM PDT 2.21 5 0 Normal
05/03/2026 08 PM PDT 2.20 5 - Normal
05/03/2026 09 PM PDT 2.19 5 - Normal
05/03/2026 10 PM PDT 2.19 5 0 Normal
05/03/2026 11 PM PDT 2.19 5 0 Normal
05/04/2026 12 AM PDT 2.19 5 0 Normal
05/04/2026 01 AM PDT 2.18 5 - Normal
05/04/2026 02 AM PDT 2.17 4 - Normal
05/04/2026 03 AM PDT 2.17 4 0 Normal
05/04/2026 04 AM PDT 2.17 4 0 Normal
05/04/2026 05 AM PDT 2.16 4 - Normal
05/04/2026 06 AM PDT 2.16 4 0 Normal
05/04/2026 07 AM PDT 2.15 4 - Normal
05/04/2026 08 AM PDT 2.13 3 - Normal
05/04/2026 09 AM PDT 2.09 2 - Normal
05/04/2026 10 AM PDT 2.06 2 - Normal
05/04/2026 11 AM PDT 2.05 2 - Normal
05/04/2026 12 PM PDT 2.05 2 0 Normal
05/04/2026 01 PM PDT 2.04 2 - Normal
05/04/2026 02 PM PDT 2.03 2 - Normal
05/04/2026 03 PM PDT 2.02 1 - Normal
05/04/2026 04 PM PDT 2.01 1 - Normal
05/04/2026 05 PM PDT 2.01 1 0 Normal
05/04/2026 06 PM PDT 2.00 1 - Normal
05/04/2026 07 PM PDT 2.01 1 + Normal
05/04/2026 08 PM PDT 2.01 1 0 Normal
05/04/2026 09 PM PDT 2.03 2 + Normal
05/04/2026 10 PM PDT 2.02 1 - Normal
05/04/2026 11 PM PDT 2.04 2 + Normal
05/05/2026 12 AM PDT 2.04 2 0 Normal
05/05/2026 01 AM PDT 2.05 2 + Normal
05/05/2026 02 AM PDT 2.06 2 + Normal
05/05/2026 03 AM PDT 2.06 2 0 Normal
05/05/2026 04 AM PDT 2.07 2 + Normal
05/05/2026 05 AM PDT 2.08 2 + Normal
05/05/2026 06 AM PDT 2.08 2 0 Normal
05/05/2026 07 AM PDT 2.09 2 + Normal
05/05/2026 08 AM PDT 2.09 2 0 Normal
05/05/2026 09 AM PDT 2.10 3 + Normal
05/05/2026 10 AM PDT 2.10 3 0 Normal
05/05/2026 11 AM PDT 2.10 3 0 Normal
05/05/2026 12 PM PDT 2.10 3 0 Normal
05/05/2026 01 PM PDT 2.10 3 0 Normal
05/05/2026 02 PM PDT 2.09 2 - Normal
05/05/2026 03 PM PDT 2.08 2 - Normal
05/05/2026 04 PM PDT 2.08 2 0 Normal
05/05/2026 05 PM PDT 2.08 2 0 Normal
05/05/2026 06 PM PDT 2.08 2 0 Normal
05/05/2026 07 PM PDT 2.09 2 + Normal
05/05/2026 08 PM PDT 2.09 2 0 Normal
05/05/2026 09 PM PDT 2.09 2 0 Normal
05/05/2026 10 PM PDT 2.09 2 0 Normal
05/05/2026 11 PM PDT 2.09 2 0 Normal
05/06/2026 12 AM PDT 2.09 2 0 Normal
05/06/2026 01 AM PDT 2.09 2 0 Normal
05/06/2026 02 AM PDT 2.09 2 0 Normal
05/06/2026 03 AM PDT 2.09 2 0 Normal
05/06/2026 04 AM PDT 2.10 3 + Normal
05/06/2026 05 AM PDT 2.10 3 0 Normal
05/06/2026 06 AM PDT 2.13 3 + Normal
05/06/2026 07 AM PDT 2.15 4 + Normal
#
# FORECAST
#
# Date & Time (Local) Stage (Feet) Flow (cfs) Trend Forecast Status
# ---------------------------------------------------------------------------------
05/06/2026 08 AM PDT 2.17 4 Normal
05/06/2026 09 AM PDT 2.19 5 + Normal
05/06/2026 10 AM PDT 2.21 5 + Normal
05/06/2026 11 AM PDT 2.22 6 + Normal
05/06/2026 12 PM PDT 2.23 6 + Normal
05/06/2026 01 PM PDT 2.24 6 + Normal
05/06/2026 02 PM PDT 2.25 7 + Normal
05/06/2026 03 PM PDT 2.26 7 + Normal
05/06/2026 04 PM PDT 2.27 8 + Normal
05/06/2026 05 PM PDT 2.28 8 + Normal
05/06/2026 06 PM PDT 2.29 8 + Normal
05/06/2026 07 PM PDT 2.29 8 0 Normal
05/06/2026 08 PM PDT 2.30 9 + Normal
05/06/2026 09 PM PDT 2.31 9 + Normal
05/06/2026 10 PM PDT 2.32 10 + Normal
05/06/2026 11 PM PDT 2.33 10 + Normal
05/07/2026 12 AM PDT 2.33 10 0 Normal
05/07/2026 01 AM PDT 2.34 11 + Normal
05/07/2026 02 AM PDT 2.35 11 + Normal
05/07/2026 03 AM PDT 2.35 11 0 Normal
05/07/2026 04 AM PDT 2.36 12 + Normal
05/07/2026 05 AM PDT 2.36 12 0 Normal
05/07/2026 06 AM PDT 2.37 12 + Normal
05/07/2026 07 AM PDT 2.37 12 0 Normal
05/07/2026 08 AM PDT 2.38 13 + Normal
05/07/2026 09 AM PDT 2.38 13 0 Normal
05/07/2026 10 AM PDT 2.39 13 + Normal
05/07/2026 11 AM PDT 2.39 13 0 Normal
05/07/2026 12 PM PDT 2.39 13 0 Normal
05/07/2026 01 PM PDT 2.40 14 + Normal
05/07/2026 02 PM PDT 2.40 14 0 Normal
05/07/2026 03 PM PDT 2.41 15 + Normal
05/07/2026 04 PM PDT 2.41 15 0 Normal
05/07/2026 05 PM PDT 2.41 15 0 Normal
05/07/2026 06 PM PDT 2.41 15 0 Normal
05/07/2026 07 PM PDT 2.42 15 + Normal
05/07/2026 08 PM PDT 2.42 15 0 Normal
05/07/2026 09 PM PDT 2.42 15 0 Normal
05/07/2026 10 PM PDT 2.42 15 0 Normal
05/07/2026 11 PM PDT 2.43 16 + Normal
05/08/2026 12 AM PDT 2.43 16 0 Normal
05/08/2026 01 AM PDT 2.43 16 0 Normal
05/08/2026 02 AM PDT 2.44 17 + Normal
05/08/2026 03 AM PDT 2.44 17 0 Normal
05/08/2026 04 AM PDT 2.44 17 0 Normal
05/08/2026 05 AM PDT 2.44 17 0 Normal
05/08/2026 06 AM PDT 2.44 17 0 Normal
05/08/2026 07 AM PDT 2.45 17 + Normal
05/08/2026 08 AM PDT 2.45 17 0 Normal
05/08/2026 09 AM PDT 2.45 17 0 Normal
05/08/2026 10 AM PDT 2.45 17 0 Normal
05/08/2026 11 AM PDT 2.45 17 0 Normal
05/08/2026 12 PM PDT 2.46 18 + Normal
05/08/2026 01 PM PDT 2.46 18 0 Normal
05/08/2026 02 PM PDT 2.46 18 0 Normal
05/08/2026 03 PM PDT 2.46 18 0 Normal
05/08/2026 04 PM PDT 2.46 18 0 Normal
05/08/2026 05 PM PDT 2.46 18 0 Normal
05/08/2026 06 PM PDT 2.46 18 0 Normal
05/08/2026 07 PM PDT 2.46 18 0 Normal
05/08/2026 08 PM PDT 2.47 19 + Normal
05/08/2026 09 PM PDT 2.47 19 0 Normal
05/08/2026 10 PM PDT 2.47 19 0 Normal
05/08/2026 11 PM PDT 2.47 19 0 Normal
05/09/2026 12 AM PDT 2.47 19 0 Normal
05/09/2026 01 AM PDT 2.47 19 0 Normal
05/09/2026 02 AM PDT 2.47 19 0 Normal
05/09/2026 03 AM PDT 2.47 19 0 Normal
05/09/2026 04 AM PDT 2.48 20 + Normal
05/09/2026 05 AM PDT 2.48 20 0 Normal
05/09/2026 06 AM PDT 2.48 20 0 Normal
05/09/2026 07 AM PDT 2.48 20 0 Normal
05/09/2026 08 AM PDT 2.48 20 0 Normal
05/09/2026 09 AM PDT 2.48 20 0 Normal
05/09/2026 10 AM PDT 2.48 20 0 Normal
05/09/2026 11 AM PDT 2.48 20 0 Normal
05/09/2026 12 PM PDT 2.48 20 0 Normal
05/09/2026 01 PM PDT 2.48 20 0 Normal
05/09/2026 02 PM PDT 2.48 20 0 Normal
05/09/2026 03 PM PDT 2.48 20 0 Normal
05/09/2026 04 PM PDT 2.49 20 + Normal
05/09/2026 05 PM PDT 2.49 20 0 Normal
05/09/2026 06 PM PDT 2.48 20 - Normal
05/09/2026 07 PM PDT 2.49 20 + Normal
05/09/2026 08 PM PDT 2.49 20 0 Normal
05/09/2026 09 PM PDT 2.49 20 0 Normal
05/09/2026 10 PM PDT 2.49 20 0 Normal
05/09/2026 11 PM PDT 2.49 20 0 Normal
05/10/2026 12 AM PDT 2.49 20 0 Normal
05/10/2026 01 AM PDT 2.49 20 0 Normal
05/10/2026 02 AM PDT 2.49 20 0 Normal
05/10/2026 03 AM PDT 2.49 20 0 Normal
05/10/2026 04 AM PDT 2.49 20 0 Normal
05/10/2026 05 AM PDT 2.49 20 0 Normal
05/10/2026 06 AM PDT 2.49 20 0 Normal
05/10/2026 07 AM PDT 2.49 20 0 Normal
05/10/2026 08 AM PDT 2.49 20 0 Normal
05/10/2026 09 AM PDT 2.49 20 0 Normal
05/10/2026 10 AM PDT 2.49 20 0 Normal
05/10/2026 11 AM PDT 2.49 20 0 Normal
05/10/2026 12 PM PDT 2.50 21 + Normal
05/10/2026 01 PM PDT 2.50 21 0 Normal
05/10/2026 02 PM PDT 2.50 21 0 Normal
05/10/2026 03 PM PDT 2.50 21 0 Normal
05/10/2026 04 PM PDT 2.50 21 0 Normal
05/10/2026 05 PM PDT 2.50 21 0 Normal
05/10/2026 06 PM PDT 2.49 20 - Normal
05/10/2026 07 PM PDT 2.50 21 + Normal
05/10/2026 08 PM PDT 2.50 21 0 Normal
05/10/2026 09 PM PDT 2.50 21 0 Normal
05/10/2026 10 PM PDT 2.50 21 0 Normal
05/10/2026 11 PM PDT 2.50 21 0 Normal
05/11/2026 12 AM PDT 2.50 21 0 Normal
05/11/2026 01 AM PDT 2.50 21 0 Normal
05/11/2026 02 AM PDT 2.50 21 0 Normal
05/11/2026 03 AM PDT 2.50 21 0 Normal
05/11/2026 04 AM PDT 2.50 21 0 Normal
05/11/2026 05 AM PDT 2.50 21 0 Normal
#
# NOTE 1: Stages are rounded to the nearest hundredth (.01) of a foot.
# NOTE 2: Flows are rounded to the nearest (1) cfs.
# NOTE 3: Trends are determined using hourly change in unrounded stage and flow.
# NOTE 4: Maximum Values are determined using unrounded stage and flow.
|